SCP
0 0 0 0 0 0 0 0 0 0 0 0 0 0 0 0 0 0 1 1 1 1 1 0 0 0 0 0 0 0 0 0 0 0 0 0 0 0 0 0 0 0 0
0 0 0 0 0 0 0 0 0 0 0 0 0 0 0 0 0 0 0 0 1 1 1 1 0 0 0 0 0 0 0 0 0 0 0 0 0 0 0 0 0 0 0
0 0 0 0 0 0 0 0 0 0 0 0 0 0 0 0 0 0 0 0 0 1 1 1 0 0 0 0 0 0 0 0 0 0 0 0 0 0 0 0 0 0 0
0 0 0 0 0 0 0 0 0 0 0 0 0 0 0 0 0 0 0 0 0 0 0 1 0 0 0 0 0 0 0 0 0 0 0 0 0 0 0 0 0 0 0
0 0 0 0 0 0 0 0 0 0 0 0 0 0 0 0 0 0 0 0 0 0 0 0 0 0 0 0 0 0 0 0 0 0 0 0 0 0 0 0 0 0 0
0 0 0 0 0 0 0 0 0 0 0 0 0 0 0 0 0 0 0 0 0 0 0 0 0 0 0 0 0 0 0 0 0 0 0 0 0 0 0 0 0 0 0
0 0 0 0 0 0 0 0 0 0 0 0 0 0 0 0 0 0 0 0 0 0 0 0 0 0 0 0 0 0 0 0 0 0 0 0 0 0 0 0 0 0 0
0 0 0 0 0 0 0 0 0 0 0 0 0 0 0 0 0 0 0 0 0 0 0 0 0 0 0 0 0 0 0 0 0 0 0 0 0 0 0 0 0 0 0
0 0 0 0 0 0 0 0 0 0 0 0 0 0 0 0 0 0 0 0 0 0 0 0 0 0 0 0 0 0 0 0 0 0 0 0 0 0 0 0 0 0 0
0 0 0 0 0 0 0 0 0 0 0 0 0 0 0 0 0 0 0 0 0 0 0 0 0 0 0 0 0 0 0 0 0 0 0 0 0 0 0 0 0 0 0
0 0 0 0 0 0 0 0 0 0 0 0 0 0 0 0 0 0 0 0 0 0 0 0 0 0 0 0 0 0 0 0 0 0 0 0 0 0 0 0 0 0 0
0 0 0 0 0 0 0 0 0 0 0 0 0 0 0 0 0 0 0 0 0 0 0 0 0 0 0 0 0 0 0 0 0 0 0 0 0 0 0 0 0 0 0
0 0 0 0 0 0 0 0 0 0 0 0 0 0 0 0 0 0 0 0 0 0 0 0 0 0 0 0 0 0 0 0 0 0 0 0 0 0 0 0 0 0 0
0 0 0 0 0 0 0 0 0 0 0 0 0 0 0 0 0 0 0 0 0 0 0 0 0 0 0 0 0 0 0 0 0 0 0 0 0 0 0 0 0 0 0
0 0 0 0 0 0 0 0 0 0 0 0 0 0 0 0 0 0 0 0 0 0 0 0 0 0 0 0 0 0 0 0 0 0 0 0 0 0 0 0 0 0 0
0 0 0 0 0 0 0 0 0 0 0 0 0 0 0 0 0 0 0 0 0 0 0 0 0 0 0 0 0 0 0 0 0 0 0 0 0 0 0 0 0 0 0
0 0 0 0 0 0 0 0 0 0 0 0 0 0 0 0 0 0 0 0 0 0 0 0 0 0 0 0 0 0 0 0 0 0 0 0 0 0 0 0 0 0 0
0 0 0 0 0 0 0 0 0 0 0 0 0 0 0 0 0 0 0 0 0 0 0 0 0 0 0 0 0 0 0 0 0 0 0 0 0 0 0 0 0 0 0
0 0 0 0 0 0 0 0 0 0 0 0 0 0 0 0 0 0 0 0 0 0 0 0 0 0 0 0 0 0 0 0 0 0 0 0 0 0 0 0 0 0 0
0 0 0 0 0 0 0 0 0 0 0 0 0 0 0 0 0 0 0 0 0 0 0 0 0 0 0 0 0 0 0 0 0 0 0 0 0 0 0 0 0 0 0
0 0 0 0 0 0 0 0 0 0 0 0 0 0 0 0 0 0 0 0 0 0 0 0 0 0 0 0 0 0 0 0 0 0 0 0 0 0 0 0 0 0 0
0 0 0 0 0 0 0 0 0 0 0 0 0 0 0 0 0 0 0 0 0 0 0 0 0 0 0 0 0 0 0 0 0 0 0 0 0 0 0 0 0 0 0
0 0 0 0 0 0 0 0 0 0 0 0 0 0 0 0 0 0 0 0 0 0 0 0 0 0 0 0 0 0 0 0 0 0 0 0 0 0 0 0 0 0 0
0 0 0 0 0 0 0 0 0 0 0 0 0 0 0 0 0 0 0 0 0 0 0 0 0 0 0 0 0 0 0 0 0 0 0 0 0 0 0 0 0 0 0
0 0 0 0 0 0 0 0 0 0 0 0 0 0 0 0 0 0 0 0 0 0 0 0 0 0 0 0 0 0 0 0 0 0 0 0 0 0 0 0 0 0 0
0 0 0 0 0 0 0 0 0 0 0 0 0 0 0 0 0 0 0 0 0 0 0 0 0 0 0 0 0 0 0 0 0 0 0 0 0 0 0 0 0 0 0
Wind_Speed
7 7 7 7 6 6 5 6 5 5 5 5 5 5 6 6 5 5 6 6 7 7 6 6 7 5 4 4 4 4 4 4 4 2 2 3 5 7 7 7 7 6 8
8 8 8 8 7 7 7 8 7 6 6 6 5 5 6 6 5 5 6 6 6 7 7 6 7 5 5 4 4 4 4 4 4 4 3 3 5 9 9 8 7 7 7
9 9 9 9 9 9 9 9 8 8 7 7 6 6 6 6 6 6 6 6 6 7 7 7 7 6 6 4 4 4 3 4 4 5 4 3 4 7 9 8 9 7 7
9 10 10 11 11 11 11 10 9 9 8 8 8 7 7 7 6 6 6 6 6 7 7 7 7 7 7 6 5 4 4 4 5 6 6 5 5 7 8 8 7 6 6
9 10 12 12 12 11 10 10 10 10 10 9 8 8 7 6 7 6 5 5 5 6 6 6 7 8 9 7 5 5 5 5 5 6 7 6 7 8 8 6 9 7 5
9 11 11 10 10 10 11 11 10 10 10 9 9 9 8 8 9 10 7 5 5 6 6 6 6 7 9 9 9 9 9 8 8 7 6 9 9 9 8 9 10 8 5
9 10 10 10 10 10 10 9 9 10 10 9 9 9 9 10 13 13 12 6 5 5 6 6 6 6 7 5 6 7 7 9 10 8 10 9 10 10 11 11 9 6 5
9 9 9 9 10 10 9 9 9 8 7 8 9 9 8 10 13 13 13 7 5 6 6 7 7 7 7 7 6 5 4 5 7 7 7 8 9 10 10 11 10 8 7
11 10 9 9 9 9 9 9 8 6 7 7 6 8 8 9 12 13 11 5 5 6 6 7 8 9 11 11 8 7 6 4 6 10 11 12 14 14 12 10 9 10 9
12 11 10 9 9 10 9 8 7 6 7 7 8 8 8 9 11 13 11 4 5 5 5 6 10 11 13 14 10 10 9 7 8 10 11 12 11 12 13 10 10 11 9
13 12 12 11 10 10 9 8 7 7 7 7 8 7 8 9 11 13 12 6 6 5 4 4 5 12 14 15 12 9 11 11 9 9 9 8 7 7 6 6 7 10 9
13 13 13 11 11 10 8 7 7 7 7 7 6 6 6 7 9 11 13 12 9 5 4 3 4 11 15 15 11 11 15 12 8 8 8 7 7 6 5 6 7 6 5
13 13 12 11 9 8 8 7 6 6 6 6 5 5 5 5 6 12 13 13 12 6 4 5 4 10 14 12 13 16 14 9 9 8 8 5 5 6 6 6 7 7 6
12 11 10 9 8 7 6 6 5 5 5 5 5 6 5 4 4 4 4 5 7 6 4 4 4 9 10 10 12 12 8 8 9 8 7 5 4 5 6 7 7 6 6
11 10 8 7 6 6 5 5 6 5 6 6 5 5 5 5 6 9 7 6 6 5 5 3 3 6 7 7 8 7 6 8 8 6 8 7 6 5 5 4 5 5 5
9 8 5 5 4 4 3 3 5 6 8 10 9 6 4 5 7 9 10 9 9 10 7 5 5 7 9 10 10 7 6 8 8 8 8 8 7 6 5 4 4 5 6
8 7 5 4 3 2 2 2 2 1 1 3 5 6 6 6 8 9 8 8 9 10 5 5 6 7 8 9 9 7 6 7 8 9 9 8 7 6 6 5 5 5 5
8 7 5 3 3 2 1 1 1 2 1 1 1 3 5 7 7 8 8 7 5 6 4 5 6 7 7 8 8 7 7 8 8 8 8 7 7 6 6 6 5 5 5
8 5 3 3 2 1 1 0 1 2 2 3 2 3 4 6 6 6 7 4 5 5 4 4 5 6 6 7 7 7 8 8 8 7 7 7 6 6 6 6 6 8 5
7 9 6 2 2 2 1 1 1 2 2 3 3 3 4 3 3 3 3 3 4 5 4 4 4 5 6 6 7 8 8 8 8 6 6 6 6 6 7 7 7 6 5
6 6 8 3 2 2 1 1 1 2 2 3 2 3 5 3 3 4 3 3 4 4 4 4 4 5 5 6 7 8 9 7 7 7 7 6 6 6 6 6 7 7 6
5 5 4 3 2 2 2 2 2 2 3 4 3 3 5 3 3 3 3 3 2 3 3 3 4 4 6 6 7 8 8 7 7 7 6 6 6 6 6 5 6 6 6
5 5 4 3 3 3 3 3 3 3 4 4 4 3 3 3 3 3 3 2 2 2 3 3 4 5 5 5 7 8 8 8 7 8 8 7 6 6 6 6 7 7 6
5 4 4 3 3 2 3 3 3 4 4 3 3 3 3 3 2 3 2 2 2 3 3 3 5 8 9 7 6 6 7 7 8 8 10 8 7 6 5 6 6 7 7
4 3 3 3 3 2 2 3 3 3 3 3 3 3 3 3 3 3 3 2 3 3 3 4 5 7 10 11 9 7 10 12 9 8 7 7 8 7 6 6 5 5 5
4 3 2 2 2 2 2 2 3 3 3 3 3 3 3 3 3 3 3 2 3 3 3 4 6 8 9 9 10 11 11 11 11 10 7 6 7 6 6 5 6 6 6
Wind_Direction
233 237 240 241 239 239 247 256 262 270 283 294 300 306 307 304 301 284 263 250 240 241 240 234 236 231 232 232 223 214 204 193 206 199 176 146 132 129 118 109 104 98 100
234 236 240 243 241 240 243 246 247 254 262 267 274 283 289 294 298 296 289 278 256 246 240 234 238 234 230 230 226 223 209 191 183 180 166 152 137 139 129 119 108 101 99
237 237 241 243 241 240 241 242 240 242 249 254 256 261 267 274 279 282 284 285 272 254 239 229 230 223 229 229 227 224 209 192 177 166 160 142 131 138 128 115 109 103 99
241 237 239 242 241 240 240 240 238 235 237 243 245 247 252 260 266 271 277 283 281 270 249 230 222 215 219 219 222 218 193 174 166 161 154 146 137 137 131 127 119 109 104
240 236 237 238 239 239 238 238 237 234 237 236 238 242 245 249 253 253 259 278 285 284 267 238 223 216 212 209 209 203 180 172 167 163 155 149 148 149 142 134 127 115 92
241 239 238 236 235 234 234 234 234 234 236 233 233 235 239 246 252 257 258 263 271 275 270 252 229 213 210 210 211 202 186 176 173 168 161 160 156 147 137 140 137 134 121
255 250 243 236 233 232 232 230 229 231 231 230 231 229 232 239 245 252 256 251 253 262 258 245 225 207 193 190 195 191 189 184 177 169 164 162 158 154 147 146 147 136 127
274 268 259 248 241 233 227 225 226 225 222 225 229 227 228 237 239 242 249 245 245 253 252 240 223 199 193 181 170 162 158 162 168 165 157 153 151 150 150 147 142 116 105
286 280 276 270 262 247 232 225 221 219 222 221 221 221 223 236 238 239 240 231 239 252 257 248 221 200 193 178 165 156 142 134 134 137 137 137 142 145 144 138 139 136 137
291 286 279 272 267 257 242 232 225 219 223 223 224 220 219 228 235 237 232 214 232 248 260 255 223 202 186 177 169 160 152 145 134 125 121 124 133 144 149 152 152 149 142
288 283 278 269 262 258 248 238 231 227 224 222 224 224 222 226 233 233 226 203 213 229 245 253 224 198 184 179 170 167 159 146 136 130 125 124 124 130 140 145 152 155 152
288 283 278 269 264 265 249 240 230 223 222 222 223 229 229 228 227 230 224 214 208 209 225 238 231 194 184 176 169 158 148 139 133 130 128 130 133 135 137 138 141 143 147
290 285 279 271 260 255 249 242 233 220 218 218 213 221 231 228 228 228 223 219 212 203 214 225 228 193 181 176 165 155 151 143 139 137 137 135 131 130 123 114 106 104 89
290 286 282 273 262 253 246 238 229 221 217 215 212 217 223 223 219 209 203 203 204 205 211 217 191 183 180 169 160 159 156 148 144 140 135 126 116 115 122 125 124 117 98
297 291 286 276 264 255 244 234 227 222 212 207 209 204 203 215 218 197 179 181 183 187 172 162 162 176 173 163 161 156 143 138 133 132 134 131 126 120 118 116 120 113 114
309 304 295 284 273 260 249 254 237 234 235 225 218 201 204 206 191 184 183 180 177 170 164 166 177 180 170 164 161 150 142 144 143 141 142 141 140 136 126 115 114 121 125
314 311 304 295 288 276 249 238 249 286 273 217 208 201 193 171 167 169 174 173 175 168 169 167 175 175 165 161 158 149 143 146 144 145 146 146 144 138 132 129 123 121 125
324 324 327 310 303 290 263 240 200 172 144 94 95 151 162 158 156 161 162 155 165 174 171 165 170 165 157 156 151 141 138 142 143 145 146 146 144 140 139 142 142 141 138
329 325 324 326 329 323 291 219 166 156 144 132 113 96 116 125 128 150 164 167 164 164 162 156 154 151 146 147 145 142 143 146 148 147 149 151 149 143 147 153 155 157 143
329 337 346 342 347 354 7 88 122 126 132 139 146 144 140 135 137 152 168 162 151 146 143 141 143 142 140 143 144 144 144 145 147 146 150 152 151 149 151 155 158 158 161
332 335 350 354 350 350 359 43 115 122 131 138 142 150 157 152 155 158 157 148 138 138 139 137 143 149 146 143 144 144 145 148 151 150 150 151 148 147 149 152 157 158 155
333 334 342 347 349 4 24 59 89 105 113 114 109 123 145 131 135 136 136 138 137 142 150 153 162 162 156 151 147 144 145 148 151 150 148 147 148 148 145 144 146 151 155
335 341 347 350 358 24 47 62 81 94 99 105 113 117 125 123 130 134 137 140 135 140 155 164 159 152 148 149 150 151 153 156 157 152 146 144 147 151 150 150 153 152 161
332 342 352 357 10 36 58 70 81 91 97 102 104 107 110 113 120 122 113 106 114 120 127 144 149 147 145 145 147 148 148 149 147 148 146 147 149 151 152 154 159 166 171
331 344 358 6 19 38 67 83 92 95 102 107 108 107 102 104 103 93 82 75 87 94 99 116 132 139 144 147 148 146 146 146 147 145 142 143 149 152 155 160 162 164 169
343 346 355 4 20 41 71 86 97 104 104 104 103 103 99 98 93 83 75 68 77 76 81 96 120 129 137 141 145 146 149 153 155 152 145 141 146 154 156 160 169 172 175